Temp
17 17 16 16 15 14 14 14 14 13 13 13 13 13 13 13 13 12 12 12 12 12
16 15 15 14 14 14 14 13 13 13 13 12 12 12 12 11 11 11 11 11 11 11
15 15 14 14 14 13 13 13 13 12 12 12 11 11 11 11 11 10 10 10 10 10
15 14 14 14 13 13 13 13 13 12 12 11 11 11 10 10 10 10 10 10 10 10
15 14 14 14 13 13 13 12 12 12 11 11 10 10 10 10 10 10 9 10 9 9
14 14 14 14 13 13 13 12 11 11 10 10 10 10 10 9 9 9 9 8 8 8
13 14 14 13 13 12 11 10 10 10 10 10 9 9 9 9 8 8 8 8 8 8
11 11 11 11 11 10 10 10 10 10 10 9 9 9 9 9 8 8 8 8 8 8
9 9 9 9 9 9 9 10 10 10 9 9 9 10 10 9 9 8 7 7 8 8
7 7 7 8 8 9 9 9 9 9 9 9 9 9 9 8 7 7 7 7 7 7
5 5 6 7 8 8 8 8 8 8 8 8 8 8 8 7 6 6 6 7 7 7
4 4 5 6 7 8 7 8 9 8 8 8 8 7 6 5 4 4 5 5 7 6
3 4 5 6 6 7 7 8 8 8 8 7 7 6 4 3 2 3 4 7 8 8
3 4 5 5 6 6 7 7 7 7 6 6 5 4 3 2 1 2 2 4 5 7
Height
773 776 778 780 781 783 783 784 785 784 783 783 782 781 780 778 778 776 773 772 771 769
777 779 780 781 782 781 781 781 781 781 781 781 781 781 780 778 776 773 771 769 767 765
778 779 780 780 780 779 779 779 780 780 780 779 778 777 776 774 772 770 767 764 761 759
778 779 779 779 779 778 777 778 778 778 777 776 774 773 772 770 767 765 762 759 756 752
778 778 777 777 778 777 776 776 776 776 775 774 771 770 768 765 763 760 756 753 751 746
778 777 777 778 777 777 776 775 776 775 773 771 768 766 763 761 758 754 751 748 744 739
776 776 777 776 776 775 774 774 773 772 769 766 763 761 758 756 752 748 743 739 735 731
775 775 774 773 773 772 772 771 770 767 763 760 759 756 753 749 744 739 734 729 725 722
776 775 773 772 771 770 769 767 764 761 758 756 754 751 748 744 739 734 728 723 718 713
775 774 772 771 769 767 765 762 759 756 754 751 749 746 743 739 734 728 721 715 709 703
774 773 771 769 766 764 762 759 756 754 752 749 746 742 739 734 727 721 712 705 698 693
773 772 769 767 765 762 759 756 753 752 749 746 741 739 735 729 721 712 704 698 690 684
772 770 768 765 763 760 757 754 751 749 746 743 739 735 730 725 717 709 701 690 682 674
771 768 767 764 762 759 755 753 750 748 743 741 736 729 724 720 715 708 697 689 678 669
Wind_Speed
14 13 11 10 9 9 9 8 7 8 8 8 9 10 11 12 13 14 15 16 17 19
13 11 11 9 7 8 7 8 8 9 9 8 9 10 13 15 17 19 21 23 23 20
11 9 8 7 7 6 5 5 8 10 11 12 12 11 12 16 17 19 22 22 23 26
10 8 8 7 5 5 4 6 9 12 14 14 14 14 16 19 20 22 23 24 26 27
6 4 4 4 4 4 5 6 10 12 14 16 16 17 19 21 21 23 26 26 24 26
3 2 2 2 2 3 5 7 8 10 13 16 17 18 19 21 21 20 20 22 24 28
12 7 5 3 3 4 3 5 9 12 15 17 16 19 21 19 22 24 24 25 26 28
13 12 10 10 8 7 10 11 13 14 16 17 19 19 21 23 25 27 29 30 31 31
11 12 14 12 11 13 13 13 15 17 19 19 19 19 20 22 28 30 27 30 31 32
13 14 15 13 13 13 15 16 16 18 19 21 22 22 23 26 26 28 29 29 29 30
15 15 15 13 12 14 15 17 17 19 20 20 23 22 24 28 29 28 28 29 31 30
14 15 14 12 14 15 17 16 18 18 21 23 23 22 26 28 29 27 30 29 33 31
12 13 11 14 15 16 15 16 19 19 21 20 21 29 27 27 27 25 27 36 36 37
11 11 11 13 15 15 14 15 15 18 18 20 27 30 29 30 28 23 29 27 32 35
Wind_Direction
107 105 100 96 96 90 85 70 37 26 17 357 339 326 319 317 311 306 303 304 303 301
107 107 105 99 87 72 53 42 24 10 3 349 331 320 314 309 303 300 298 298 299 299
109 107 99 95 82 64 53 38 11 356 343 336 327 322 318 318 307 301 301 298 299 294
119 114 108 93 58 32 11 355 350 352 343 336 328 319 303 305 300 289 287 289 290 290
109 97 77 32 23 355 340 337 331 337 333 330 323 315 307 306 303 293 292 285 283 284
39 13 343 326 317 323 318 328 336 328 325 322 316 314 311 305 301 299 293 290 286 285
350 320 299 280 297 347 36 12 340 331 328 326 322 320 317 310 307 306 305 299 293 288
26 36 49 52 61 31 2 350 340 331 329 328 325 329 322 321 316 309 306 305 299 290
16 20 26 24 5 354 349 342 337 333 328 327 328 330 332 330 318 305 294 294 291 286
349 347 353 351 348 348 343 338 334 334 336 334 331 334 335 329 325 314 301 290 286 284
342 340 339 340 342 339 338 333 334 339 340 332 333 345 341 328 324 317 307 298 290 287
343 341 337 339 334 328 329 329 328 333 337 337 338 341 339 333 330 316 309 312 314 302
341 335 341 337 329 328 323 324 332 332 336 344 336 339 338 334 334 316 320 332 335 331
341 334 335 340 349 347 348 347 353 344 353 346 344 343 339 339 337 324 320 317 320 322